Location: ??????
(38.3184°N, 23.6932°E)
Time: 02:46:10
(UTC+00:00)

IRS-1C Rocket - Pass Details

Date: 16 October 2021
Orbit: 801 x 805 km, 98.9° (Epoch: 04 December)

Event Time Altitude Azimuth Distance (km) Brightness Sun altitude
Exits shadow 17:08:17 - 147° (SSE) 2,475 6.3 -16.9°
Reaches altitude 10° 17:08:33 10° 146° (SE) 2,370 6.2 -17.0°
Maximum altitude 17:13:36 52° 72° (ENE) 997 4.2 -18.0°
Drops below altitude 10° 17:18:42 10° 357° (N) 2,387 6.6 -19.0°
Sets 17:21:05 0° 353° (N) 3,322 7.4 -19.4°
